Regional Weather Roundup
Issued by NWS

Home | Current Version | Previous Version | Text Only | Print | Product List | Glossary Off
Versions: 1 2 3 4 5 6 7 8 9 10 11 12 13 14 15 16 17 18 19 20 21 22 23 24 25 26 27 28 29 30 31 32 33 34 35 36 37 38 39 40 41 42 43 44 45 46 47 48 49 50

000
ASUS43 KIND 260059
RWRIN

WEATHER ROUNDUP FOR INDIANA
NATIONAL WEATHER SERVICE INDIANAPOLIS IN
800 PM EST SAT FEB 25 2017

NOTE: "FAIR" INDICATES FEW OR NO CLOUDS BELOW 12,000 FEET WITH NO
SIGNIFICANT WEATHER AND/OR OBSTRUCTIONS TO VISIBILITY.

* - STATION DOES NOT REPORT WEATHER SUCH AS PRECIPITATION OR FOG.

+ - STATION NOT QUALITY CONTROLLED BY THE NATIONAL WEATHER SERVICE.
    USE DATA WITH CAUTION...ESPECIALLY DEWPOINT AND RELATIVE
    HUMIDITY OBSERVATIONS.

INZ001>003-010>013-019-020-260200-
NORTHWEST INDIANA

CITY           SKY/WX    TMP DP  RH WIND       PRES   REMARKS
GARY /AIRPORT/ MOCLDY    28  14  54 W14G29    30.00R WCI  17
KNOX *+        CLOUDY    28  -4  24 W14       29.98R WCI  17

$$

LMZ046-743>745-260200-
SOUTHERN LAKE MICHIGAN

STATION/POSITION TIME  TEMP    WIND        PRES    WAVE
                       AIR SEA DIR/SP/G            HT
                 (UTC) (F)     (DEG/KT/KT) (MB)    (FT)
BURNS HARBOR     0030   28     290/ 15/ 21 1015.9R
MICHIGAN CITY    0030   26     260/ 17/ 20   N/A

$$

INZ004-005-014>016-021>024-260200-
NORTH CENTRAL INDIANA

CITY           SKY/WX    TMP DP  RH WIND       PRES   REMARKS
GOSHEN         CLOUDY    25  17  72 W13       29.96R WCI  14
SOUTH BEND     CLOUDY    25  15  66 W12G18    29.97R WCI  14

$$

INZ006>009-017-018-025>027-260200-
NORTHEAST INDIANA

CITY           SKY/WX    TMP DP  RH WIND       PRES   REMARKS
ANGOLA *+      CLOUDY    23  19  86 W9        29.92S WCI  13
FORT WAYNE     FLURRIES  27  18  69 W16G32    29.96R WCI  15
KENDALLVILLE + CLOUDY    25  16  68 W9        29.94R WCI  15

$$

INZ028-029-035-036-043>045-051>053-260200-
WEST CENTRAL INDIANA

CITY           SKY/WX    TMP DP  RH WIND       PRES   REMARKS
LAFAYETTE      CLOUDY    28  18  66 W15G21    30.03R WCI  16
TERRE HAUTE    CLEAR     32  14  47 W12       30.06R WCI  23

$$

INZ030>032-037>040-046>048-054>057-064-065-260200-
CENTRAL INDIANA

CITY           SKY/WX    TMP DP  RH WIND       PRES   REMARKS
COLUMBUS       MOCLDY    30  18  59 W8        30.05R WCI  23
GREENWOOD *+   CLEAR     31  17  56 W7G16     30.03R WCI  24
INDIANAPOLIS   PTCLDY    29  16  58 W12       30.02R WCI  19
-EAGLE CREEK   CLEAR     30  16  56 W7        30.02R WCI  23
KOKOMO +       CLOUDY    29  19  66 W21       30.00  WCI  16
MT COMFORT *+  CLEAR     28  18  64 W9        30.02R WCI  20
SHELBYVILLE    CLEAR     31  16  54 W9        30.02R WCI  23

$$

INZ033-034-041-042-049-050-058-059-260200-
EAST CENTRAL INDIANA

CITY           SKY/WX    TMP DP  RH WIND       PRES   REMARKS
MUNCIE         CLOUDY    30  17  58 W15G24    29.99R WCI  19

$$

INZ060-061-067>069-081>083-085>088-260200-
SOUTHWEST INDIANA

CITY           SKY/WX    TMP DP  RH WIND       PRES   REMARKS
EVANSVILLE     CLEAR     35  15  44 W3        30.11S
HUNTINGBURG *+ CLEAR     31  20  63 W6        30.10R WCI  25

$$

INZ062-063-066-070>080-084-089>092-260200-
SOUTH CENTRAL AND SOUTHEAST INDIANA

CITY           SKY/WX    TMP DP  RH WIND       PRES   REMARKS
BLOOMINGTON    CLEAR     31  15  52 W6        30.04R WCI  25
MADISON *+     CLEAR     32  19  59 W3        30.07R
SEYMOUR +      PTCLDY    32  18  55 W9        30.06R WCI  24

$$




USA.gov is the U.S. government's official web portal to all federal, state and local government web resources and services.